Hourly Data Report for September 01, 2013

All times are specified in Local Standard Time (LST). Add 1 hour to adjust for Daylight Saving Time where and when it is observed.

PETAWAWA AWOS 2
ONTARIO

45°57'00.000" N
77°19'00.000" W
130.10 m
6106396
71625
YWA

Download Data

Hourly Data (September 2013)
Hourly Data Report for September 1, 2013
Temp Definition
°C
Dew Point Temp Definition
°C
Rel Hum Definition
%
Wind Dir Definition
10's deg

Wind Spd Definition
km/h
Visibility Definition
km
Stn Press Definition
kPa
Hmdx Definition


Wind Chill Definition


Weather Definition


TIME
00:00 14.7 14.2 97   0 15.0 99.64      
01:00 13.9 13.6 98   0 15.0 99.65      
02:00 14.4 13.6 95   0 15.0 99.64      
03:00 13.6 13.3 98 27 7 15.0 99.63      
04:00 13.2 12.8 97 26 6 15.0 99.65      
05:00 12.9 12.6 98 26 6 15.0 99.67      
06:00 13.1 12.7 97 27 6 15.0 99.73      
07:00 14.2 13.6 96 26 6 15.0 99.71      
08:00 16.3 14.6 90   0 15.0 99.71      
09:00 17.9 14.8 82   0 15.0 99.74      
10:00 20.6 16.0 75   0 15.0 99.73 25    
11:00 21.2 15.9 72 5 4 15.0 99.68 26    
12:00 23.1 16.7 67 13 9 15.0 99.63 28    
13:00 23.9 16.1 62   0 15.0 99.59 29    
14:00 24.4 17.4 65   0 15.0 99.52 30    
15:00 24.8 17.4 63   0 15.0 99.46 30    
16:00 24.8 17.4 63   0 15.0 99.42 30    
17:00 24.4 17.6 66   0 15.0 99.42 30    
18:00 23.7 18.2 71   0 15.0 99.39 30    
19:00 22.9 18.6 77 13 4 15.0 99.41 29    
20:00 22.0 19.2 84 11 7 15.0 99.36 29    
21:00 21.5 19.2 87 11 6 15.0 99.37 28    
22:00 21.3 18.9 86 10 7 15.0 99.34 28    
23:00 20.8 18.3 86 10 4 15.0 99.34 27    

Notes on Data Quality.

Legend

  • E = Estimated
  • M = Missing
  • NA = Not Available
  • ‡ = Partner data that is not subject to review by the National Climate Archives
Date modified: